User: anonymous   Login
Location: Unspecified
(0.0000°N, 0.0000°E)
Time: 04:35:47
(UTC+00:00)
Language:

STARLINK-35467 - Orbit

View from above orbital plane
View from above orbital plane
View from above satellite
View from above satellite

Ground track
Ground track

The orbit is defined by the following mean orbital elements,

1 66343U          26145.46604883 +.00000000 +00000-0 +65860-3 0 00000
2 66343  43.0004 139.1536 0001779 274.3422  85.7226 15.27596144    05
Epoch (UTC): 25 May 2026 11:11:06
Eccentricity: 0.0001779
inclination: 43.0004°
perigee height: 482 km
apogee height: 484 km
right ascension of ascending node: 139.1536°
argument of perigee: 274.3422°
revolutions per day: 15.27596144
mean anomaly at epoch: 85.7226°

The dashed part of the orbit path shows where the satellite is in the earth's shadow,  

DLR